GW4651 Weather Reports


Display with metric or nautical units.
time (UTC)temp
F
wind
direction
speed
MPH
gust
MPH
rain 1hr
in
rain 24hr
in
rain mn
in
humidity
%
barometer
mb
20260510223606 53 128 0.0 2.0 0.00 0.00 0.00 74 1015.5
20260510222107 53 107 1.0 2.0 0.00 0.00 0.00 74 1015.6
20260510221607 53 135 1.0 2.0 0.00 0.00 0.00 74 1015.6
20260510221105 53 18 1.0 2.0 0.00 0.00 0.00 75 1015.8
20260510220605 53 36 0.0 2.0 0.00 0.00 0.00 75 1015.7
20260510215607 54 5 1.0 2.0 0.00 0.00 0.00 74 1015.7
20260510214105 54 28 1.0 2.0 0.00 0.00 0.00 73 1015.3
20260510213606 54 77 0.0 1.0 0.00 0.00 0.00 73 1015.6
20260510213105 54 19 0.0 5.0 0.00 0.00 0.00 73 1015.5
20260510212606 54 275 3.0 5.0 0.00 0.00 0.00 73 1015.5
20260510212105 54 266 4.0 6.0 0.00 0.00 0.00 72 1015.6
20260510211606 54 278 2.0 5.0 0.00 0.00 0.00 72 1015.6
20260510210605 54 319 3.0 5.0 0.00 0.00 0.00 72 1015.4
20260510210106 54 332 2.0 5.0 0.00 0.00 0.00 73 1015.6
20260510205606 54 330 2.0 5.0 0.00 0.00 0.00 72 1015.4
20260510205105 55 326 3.0 6.0 0.00 0.00 0.00 72 1015.3
20260510204606 55 317 4.0 8.0 0.00 0.00 0.00 72 1015.3
20260510204105 55 333 3.0 6.0 0.00 0.00 0.00 73 1015.2
20260510203106 55 336 3.0 6.0 0.00 0.00 0.00 73 1015.3
20260510202607 55 282 4.0 7.0 0.00 0.00 0.00 73 1015.1
20260510200605 55 253 9.0 13.0 0.00 0.00 0.00 71 1014.6
20260510200105 56 279 6.0 7.0 0.00 0.00 0.00 70 1014.3
20260510195606 56 264 6.0 7.0 0.00 0.00 0.00 70 1014.4
20260510195105 56 274 4.0 7.0 0.00 0.00 0.00 70 1014.5
20260510194605 56 285 5.0 6.0 0.00 0.00 0.00 72 1014.5
20260510194106 56 292 4.0 6.0 0.00 0.00 0.00 71 1014.3
20260510193606 56 256 4.0 5.0 0.00 0.00 0.00 71 1014.6
20260510193105 56 273 2.0 5.0 0.00 0.00 0.00 71 1014.4
20260510192105 56 269 4.0 6.0 0.00 0.00 0.00 71 1014.3
20260510191606 56 286 5.0 9.0 0.00 0.00 0.00 70 1014.3
20260510191107 56 289 7.0 10.0 0.00 0.00 0.00 69 1014.3
20260510190606 56 279 7.0 10.0 0.00 0.00 0.00 69 1014.1
20260510190105 56 280 6.0 9.0 0.00 0.00 0.00 70 1014.2
20260510185605 56 257 7.0 12.0 0.00 0.00 0.00 70 1014.2
20260510185105 56 258 9.0 13.0 0.00 0.00 0.00 70 1014.4
20260510183106 57 261 7.0 15.0 0.00 0.00 0.00 72 1014.1
20260510182607 57 255 13.0 20.0 0.00 0.00 0.00 71 1014.0
20260510181605 58 262 10.0 18.0 0.00 0.00 0.00 70 1013.8
20260510181106 58 249 13.0 18.0 0.00 0.00 0.00 70 1013.6
20260510180105 58 248 11.0 16.0 0.00 0.00 0.00 72 1013.9
20260510175605 58 258 9.0 13.0 0.00 0.00 0.00 73 1013.5
20260510174105 58 265 10.0 17.0 0.00 0.00 0.00 73 1013.5
20260510173606 58 264 9.0 18.0 0.00 0.00 0.00 73 1013.1
20260510172605 58 268 10.0 16.0 0.00 0.00 0.00 73 1013.0
20260510172105 58 289 8.0 20.0 0.00 0.00 0.00 73 1013.2
20260510171105 59 262 13.0 21.0 0.00 0.00 0.00 72 1013.3
20260510170605 59 262 10.0 13.0 0.00 0.00 0.00 71 1012.9
20260510170106 59 232 10.0 14.0 0.00 0.00 0.00 71 1012.9
20260510165605 59 242 9.0 14.0 0.00 0.00 0.00 70 1012.9
20260510165105 59 240 13.0 24.0 0.00 0.00 0.00 71 1013.3
20260510164605 59 251 14.0 22.0 0.00 0.00 0.00 69 1013.1
20260510164105 59 256 9.0 18.0 0.00 0.00 0.00 69 1012.9
20260510163605 59 255 13.0 21.0 0.00 0.00 0.00 71 1013.2
20260510163105 59 242 13.0 20.0 0.00 0.00 0.00 72 1013.2
20260510162605 59 241 13.0 20.0 0.00 0.00 0.00 72 1013.1
20260510162105 59 254 13.0 18.0 0.00 0.00 0.00 72 1013.0
20260510161606 58 250 15.0 23.0 0.00 0.00 0.00 72 1013.0
20260510161105 59 250 18.0 25.0 0.00 0.00 0.00 70 1013.3
20260510160605 60 240 12.0 17.0 0.00 0.00 0.00 67 1012.5
20260510155605 61 228 13.0 21.0 0.00 0.00 0.00 65 1012.0
20260510155105 61 218 14.0 24.0 0.00 0.00 0.00 65 1012.2
20260510154605 61 228 11.0 20.0 0.00 0.00 0.00 65 1011.9
20260510154105 62 221 14.0 22.0 0.00 0.00 0.00 63 1011.8
20260510153605 61 203 15.0 25.0 0.00 0.00 0.00 64 1011.9
20260510153105 62 212 15.0 24.0 0.00 0.00 0.00 63 1011.7
20260510152604 62 226 13.0 25.0 0.00 0.00 0.00 63 1011.9
20260510152106 63 217 15.0 26.0 0.00 0.00 0.00 62 1011.7
20260510151605 62 231 15.0 25.0 0.00 0.00 0.00 65 1012.0
20260510151105 62 210 16.0 25.0 0.00 0.00 0.00 64 1011.8
20260510150604 63 236 14.0 25.0 0.00 0.00 0.00 64 1011.9
20260510150106 62 225 14.0 28.0 0.00 0.00 0.00 65 1011.9
20260510145605 61 215 18.0 28.0 0.00 0.00 0.00 67 1012.3
20260510145105 61 221 16.0 29.0 0.00 0.00 0.00 67 1012.2
20260510144605 61 210 16.0 24.0 0.00 0.00 0.00 67 1012.3
20260510143605 61 223 16.0 23.0 0.00 0.00 0.00 67 1012.3
20260510142604 61 208 20.0 26.0 0.00 0.00 0.00 68 1012.6
20260510142104 60 232 13.0 24.0 0.00 0.00 0.00 69 1012.6
20260510141106 61 231 11.0 22.0 0.00 0.00 0.00 71 1012.6
20260510140605 60 228 12.0 20.0 0.00 0.00 0.00 72 1012.8
20260510140105 59 234 10.0 22.0 0.00 0.00 0.00 74 1012.9
20260510135105 60 218 13.0 25.0 0.00 0.00 0.00 72 1013.1
20260510134605 60 223 12.0 23.0 0.00 0.00 0.00 72 1013.1
20260510134105 60 225 16.0 31.0 0.00 0.00 0.00 72 1013.3
20260510133605 60 223 16.0 23.0 0.00 0.00 0.00 73 1013.3
20260510133106 59 213 18.0 29.0 0.00 0.00 0.00 73 1013.2
20260510132605 59 213 13.0 21.0 0.00 0.00 0.00 75 1013.1
20260510132105 59 198 13.0 22.0 0.00 0.01 0.00 75 1013.4
20260510130606 58 226 16.0 24.0 0.00 0.01 0.00 74 1013.3
20260510130105 58 213 15.0 28.0 0.00 0.01 0.00 75 1013.2
20260510125105 58 205 19.0 29.0 0.00 0.01 0.00 73 1013.4
20260510124606 59 211 15.0 31.0 0.00 0.01 0.00 72 1013.2
20260510123605 59 212 16.0 25.0 0.00 0.01 0.00 72 1013.1
20260510123105 59 213 14.0 25.0 0.00 0.01 0.00 72 1013.3
20260510122105 58 208 14.0 22.0 0.00 0.01 0.00 73 1013.3
20260510121605 58 226 12.0 24.0 0.00 0.01 0.00 73 1013.3
20260510121104 58 200 13.0 22.0 0.00 0.02 0.00 72 1013.4
20260510120606 59 213 13.0 23.0 0.00 0.02 0.00 71 1013.3
20260510115605 59 200 20.0 30.0 0.00 0.02 0.00 73 1013.5
20260510115104 59 213 20.0 31.0 0.00 0.02 0.00 71 1013.5
20260510114105 61 214 16.0 29.0 0.00 0.02 0.00 70 1013.2
20260510113605 59 195 17.0 30.0 0.00 0.02 0.00 70 1013.2
20260510113106 59 198 19.0 29.0 0.00 0.02 0.00 70 1013.2
20260510112606 59 199 20.0 31.0 0.00 0.02 0.00 70 1013.3
20260510112105 59 207 18.0 29.0 0.00 0.02 0.00 72 1013.4
20260510111605 58 203 16.0 25.0 0.00 0.02 0.00 72 1013.4
20260510111104 58 205 18.0 28.0 0.00 0.02 0.00 74 1013.7
20260510110605 58 206 17.0 29.0 0.00 0.02 0.00 72 1013.7
20260510110104 58 212 17.0 29.0 0.00 0.02 0.00 73 1013.8
20260510105604 58 208 17.0 28.0 0.00 0.02 0.00 73 1013.7
20260510105105 58 213 14.0 28.0 0.00 0.02 0.00 74 1013.9
20260510104606 57 209 19.0 28.0 0.00 0.02 0.00 74 1013.9
20260510104104 58 200 16.0 30.0 0.00 0.02 0.00 73 1013.6
20260510103104 58 213 15.0 30.0 0.00 0.02 0.00 72 1013.6
20260510102605 58 204 21.0 29.0 0.00 0.02 0.00 73 1013.6
20260510102104 59 214 14.0 33.0 0.00 0.02 0.00 71 1013.3
20260510101105 59 203 18.0 29.0 0.00 0.02 0.00 71 1013.5
20260510100604 58 217 17.0 25.0 0.00 0.02 0.00 72 1013.7
20260510100105 58 215 17.0 26.0 0.00 0.02 0.00 73 1013.5
20260510095605 59 211 12.0 22.0 0.00 0.02 0.00 72 1013.5
20260510095104 57 202 16.0 25.0 0.00 0.02 0.00 73 1013.6
20260510094605 57 208 16.0 29.0 0.00 0.02 0.00 73 1013.6
20260510094105 58 211 20.0 29.0 0.00 0.02 0.00 73 1013.7
20260510093604 58 205 17.0 25.0 0.00 0.02 0.00 72 1013.3
20260510092604 59 208 13.0 20.0 0.00 0.02 0.00 71 1013.2
20260510092105 58 206 14.0 23.0 0.00 0.02 0.00 72 1013.6
20260510091605 58 225 11.0 22.0 0.00 0.02 0.00 72 1013.4
20260510091105 58 226 13.0 22.0 0.00 0.02 0.00 73 1013.4
20260510090104 58 213 13.0 23.0 0.00 0.03 0.00 73 1013.6
20260510085605 57 209 13.0 20.0 0.00 0.03 0.00 73 1013.6
20260510085105 57 212 13.0 20.0 0.00 0.03 0.00 74 1013.7
20260510084604 57 220 10.0 26.0 0.00 0.03 0.00 75 1013.4
20260510084104 57 208 15.0 22.0 0.00 0.03 0.00 75 1013.5
20260510083604 56 209 13.0 21.0 0.00 0.03 0.00 76 1013.3
20260510083105 56 214 14.0 22.0 0.00 0.03 0.00 77 1013.5
20260510082606 56 217 14.0 25.0 0.00 0.03 0.00 77 1013.7
20260510082105 56 195 15.0 24.0 0.00 0.03 0.00 76 1013.6
20260510081606 56 198 16.0 26.0 0.00 0.03 0.00 74 1013.4
20260510081105 56 195 16.0 28.0 0.00 0.03 0.00 75 1013.5
20260510080604 57 201 20.0 32.0 0.00 0.03 0.00 74 1013.5
20260510080104 57 203 18.0 32.0 0.00 0.03 0.00 73 1013.5
20260510075605 57 208 16.0 30.0 0.00 0.03 0.00 74 1013.3
20260510075104 56 214 16.0 23.0 0.00 0.03 0.00 74 1013.6
20260510074604 56 207 16.0 29.0 0.00 0.03 0.00 74 1013.6
20260510074104 56 205 17.0 23.0 0.00 0.03 0.00 75 1013.4
20260510073604 55 205 14.0 22.0 0.00 0.03 0.00 76 1013.6
20260510073104 55 201 13.0 18.0 0.00 0.03 0.00 77 1013.7
20260510072604 55 206 14.0 20.0 0.00 0.03 0.00 77 1013.6
20260510072104 55 203 12.0 20.0 0.00 0.03 0.00 77 1013.6
20260510071605 55 196 14.0 21.0 0.00 0.03 0.00 76 1013.5
20260510071104 55 202 12.0 23.0 0.00 0.03 0.00 76 1013.6
20260510070604 55 204 14.0 23.0 0.00 0.03 0.00 76 1013.8
20260510065106 55 207 14.0 22.0 0.00 0.03 0.00 76 1013.8
20260510064604 55 202 13.0 21.0 0.00 0.03 0.00 76 1013.8
20260510064105 54 199 13.0 22.0 0.00 0.03 0.00 76 1013.9
20260510062605 54 196 14.0 26.0 0.00 0.03 0.00 76 1013.7
20260510062105 54 203 13.0 22.0 0.00 0.03 0.00 77 1013.7
20260510061605 54 200 12.0 23.0 0.00 0.03 0.00 77 1013.5
20260510061105 54 198 10.0 18.0 0.00 0.03 0.00 77 1013.4
20260510060604 54 195 13.0 20.0 0.00 0.03 0.00 77 1013.8
20260510060105 54 203 12.0 18.0 0.00 0.03 0.00 77 1013.5
20260510055606 54 204 11.0 18.0 0.00 0.03 0.00 77 1013.5
20260510054605 54 208 10.0 16.0 0.00 0.03 0.00 78 1013.5
20260510054104 54 214 11.0 20.0 0.00 0.03 0.00 78 1013.4
20260510053106 54 209 9.0 18.0 0.00 0.03 0.00 79 1013.2
20260510052604 54 196 8.0 17.0 0.00 0.03 0.00 79 1013.3
20260510052105 54 208 10.0 18.0 0.00 0.03 0.00 79 1013.2
20260510051606 54 204 12.0 20.0 0.00 0.03 0.00 79 1013.1
20260510051104 54 194 13.0 22.0 0.00 0.03 0.00 79 1013.1
20260510050604 54 196 10.0 16.0 0.00 0.03 0.00 79 1013.0
20260510050105 54 196 10.0 17.0 0.00 0.03 0.00 80 1013.2
20260510045106 53 191 13.0 18.0 0.00 0.03 0.00 80 1013.0
20260510044104 53 195 11.0 20.0 0.00 0.03 0.00 80 1013.0
20260510043604 53 192 12.0 18.0 0.00 0.03 0.00 80 1013.2
20260510043104 53 193 7.0 14.0 0.00 0.03 0.00 81 1013.1
20260510042604 53 202 7.0 14.0 0.00 0.03 0.00 80 1013.2
20260510042104 53 187 8.0 15.0 0.00 0.03 0.00 80 1013.0
20260510041605 53 193 6.0 13.0 0.00 0.03 0.00 79 1013.1
20260510041104 53 195 7.0 14.0 0.00 0.03 0.00 79 1013.1
20260510040605 53 193 6.0 13.0 0.00 0.03 0.00 79 1013.1
20260510040104 54 208 9.0 15.0 0.00 0.03 0.00 78 1013.0
20260510035604 54 207 10.0 15.0 0.00 0.03 0.00 78 1013.1
20260510035105 54 195 10.0 16.0 0.00 0.03 0.00 77 1013.1
20260510033604 53 186 10.0 18.0 0.00 0.03 0.00 77 1013.1
20260510033104 54 183 9.0 16.0 0.00 0.03 0.00 76 1013.0
20260510032604 53 203 7.0 14.0 0.00 0.03 0.00 77 1013.1
20260510032104 54 190 6.0 14.0 0.00 0.03 0.00 76 1013.4
20260510031605 53 201 9.0 15.0 0.00 0.03 0.00 76 1013.2
20260510031104 54 194 7.0 13.0 0.00 0.03 0.00 75 1013.2
20260510030105 54 187 8.0 17.0 0.00 0.03 0.00 74 1013.1
20260510025604 54 178 7.0 16.0 0.00 0.03 0.00 74 1013.2
20260510025104 54 166 9.0 16.0 0.00 0.03 0.00 74 1013.2
20260510024607 54 179 9.0 16.0 0.00 0.03 0.00 74 1013.2
20260510024106 54 182 8.0 14.0 0.00 0.03 0.00 75 1013.4
20260510023606 53 176 8.0 13.0 0.00 0.03 0.00 75 1013.4
20260510023106 53 184 6.0 13.0 0.00 0.03 0.00 76 1013.5
20260510022606 53 174 7.0 13.0 0.00 0.03 0.00 76 1013.6
20260510022107 53 181 5.0 12.0 0.00 0.03 0.00 77 1013.5
20260510021606 53 162 3.0 10.0 0.00 0.03 0.00 77 1013.7
20260510021106 54 182 4.0 12.0 0.00 0.03 0.00 76 1013.5
20260510020607 54 191 5.0 10.0 0.00 0.03 0.00 76 1013.6
20260510020108 54 181 6.0 12.0 0.00 0.03 0.00 76 1013.5
20260510015607 54 190 6.0 13.0 0.00 0.03 0.00 76 1013.6
20260510014606 53 202 7.0 13.0 0.00 0.03 0.00 78 1013.9
20260510013605 53 193 9.0 13.0 0.00 0.03 0.00 79 1013.8
20260510012606 53 210 7.0 13.0 0.00 0.03 0.00 79 1014.0
20260510011605 53 203 8.0 13.0 0.00 0.03 0.00 79 1014.0
20260510011107 53 189 7.0 12.0 0.00 0.03 0.00 79 1014.1
20260510010607 53 218 6.0 13.0 0.00 0.03 0.00 80 1014.1
20260510005606 53 191 8.0 12.0 0.00 0.03 0.00 80 1014.0
20260510005106 54 208 7.0 13.0 0.00 0.03 0.00 79 1014.0
20260510004607 54 196 7.0 12.0 0.00 0.03 0.00 78 1013.9
20260510004106 54 194 8.0 14.0 0.00 0.03 0.00 78 1014.2
20260510003607 54 200 8.0 14.0 0.00 0.03 0.00 79 1014.3
20260510003107 53 213 8.0 14.0 0.00 0.03 0.00 80 1014.1
20260510002605 53 204 7.0 13.0 0.00 0.03 0.00 81 1014.2
20260510002106 53 206 6.0 12.0 0.00 0.03 0.00 82 1014.2
20260510001606 53 198 6.0 10.0 0.00 0.03 0.00 82 1014.5
20260510001106 53 199 7.0 13.0 0.00 0.03 0.00 82 1014.3
20260510000607 53 193 6.0 13.0 0.00 0.03 0.00 83 1014.4
20260510000107 53 179 5.0 8.0 0.00 0.03 0.00 82 1014.4
20260509235106 53 203 5.0 9.0 0.00 0.03 0.00 82 1014.4
20260509233605 53 174 4.0 9.0 0.00 0.03 0.00 81 1014.5
20260509233106 53 194 5.0 10.0 0.00 0.03 0.00 81 1014.4
20260509232606 53 183 5.0 8.0 0.00 0.03 0.00 83 1014.5
20260509232106 53 181 6.0 9.0 0.00 0.03 0.00 82 1014.8
20260509231606 53 184 6.0 9.0 0.00 0.03 0.00 82 1014.6
20260509231105 53 202 5.0 10.0 0.00 0.03 0.00 82 1014.7
20260509230605 53 195 5.0 9.0 0.00 0.03 0.00 81 1014.7
20260509230106 53 210 5.0 9.0 0.00 0.03 0.00 81 1014.6
20260509225605 53 190 5.0 10.0 0.00 0.03 0.00 81 1014.5
20260509225109 53 200 7.0 12.0 0.00 0.03 0.00 81 1015.0
20260509224105 53 211 6.0 10.0 0.00 0.03 0.00 81 1014.6